Tracking 33485 objects as of 15-Mar-2026
HD Live streaming from Space Station
objects crossing your sky now

STARLINK-35410

Track STARLINK-35410 now!
10-day predictions
STARLINK-35410 is classified as:


NORAD ID: 66024
Int'l Code: 2025-232V
Perigee: 481.5 km
Apogee: 483.1 km
Inclination: 53.2 °
Period: 94.1 minutes
Semi major axis: 6853 km
RCS: Unknown
Launch date: October 16, 2025
Source: United States (US)
Launch site: AIR FORCE EASTERN TEST RANGE (AFETR)
Your satellite tracking list
Your tracking list is empty




NASA's NSSDC Master Catalog

Two Line Element Set (TLE):
1 66024U 25232V   26073.73953045  .00034631  00000-0  11754-2 0  9993
2 66024  53.1609  80.0980 0001172  86.5322 273.5813 15.30214462 24212
Source of the keplerian elements: AFSPC